Date,TemperatureHighF,TemperatureAvgF,TemperatureLowF,DewpointHighF,DewpointAvgF,DewpointLowF,HumidityHigh,HumidityAvg,HumidityLow,PressureMaxIn,PressureMinIn,WindSpeedMaxMPH,WindSpeedAvgMPH,GustSpeedMaxMPH,PrecipitationSumIn
2013-2-1,30.0,28.4,24.0,15.0,11.1,5.0,63,48,34,30.17,29.36,21,13,38,0.04
2013-2-2,29.0,24.5,20.0,20.0,9.6,5.0,84,53,37,30.24,30.17,15,8,26,0.00
2013-2-3,30.0,26.6,24.0,22.0,19.9,16.0,90,76,59,30.22,29.80,11,5,17,0.00
2013-2-4,29.0,27.2,23.0,21.0,11.7,8.0,73,52,41,29.96,29.80,19,10,29,0.00
2013-2-5,31.0,29.0,27.0,29.0,24.9,16.0,92,85,57,29.94,29.93,9,5,16,0.00
2013-2-6,39.0,33.6,29.0,30.0,21.5,3.0,93,64,31,30.16,29.92,5,0,8,0.00
2013-2-7,31.0,28.7,26.0,22.0,10.6,3.0,69,47,31,30.47,30.16,0,0,0,0.00
2013-2-8,34.0,31.7,27.0,32.0,28.7,22.0,97,89,69,30.42,30.31,0,0,0,0.06
2013-2-9,32.0,27.7,22.0,26.0,16.8,6.0,96,67,35,30.31,29.78,20,4,36,0.02
2013-2-10,39.0,26.7,19.0,27.0,13.3,7.0,79,57,35,30.41,30.31,14,5,21,0.00
2013-2-11,47.0,41.2,33.0,46.0,38.7,24.0,97,91,68,30.41,29.91,12,4,18,0.49
2013-2-12,45.0,41.9,38.0,41.0,28.0,25.0,90,58,49,29.95,29.85,18,11,32,0.01
2013-2-13,40.0,37.5,34.0,32.0,27.1,24.0,90,66,59,29.90,29.69,9,6,15,0.00
2013-2-14,45.0,38.4,34.0,35.0,30.0,25.0,92,73,45,29.96,29.69,11,6,17,0.01
2013-2-15,51.0,42.9,37.0,39.0,34.1,29.0,80,71,50,30.01,29.96,16,7,25,0.00
2013-2-16,44.0,38.7,36.0,34.0,33.3,32.0,89,81,63,30.01,29.93,13,8,20,0.00
2013-2-20,29.0,27.3,26.0,15.0,11.9,9.0,57,52,47,29.95,29.93,21,14,38,0.00
2013-2-21,33.0,27.5,24.0,15.0,12.6,10.0,64,53,45,30.09,29.94,21,14,35,0.00
2013-2-22,37.0,31.2,26.0,31.0,22.3,16.0,80,69,61,30.39,30.09,13,7,21,0.00
2013-2-23,44.0,37.3,35.0,43.0,35.4,32.0,96,93,82,30.27,29.85,17,7,26,0.33
2013-2-24,46.0,39.3,34.0,38.0,30.9,22.0,96,73,56,29.85,29.74,18,11,31,0.01
2013-2-25,43.0,38.4,33.0,30.0,25.9,23.0,72,61,50,30.22,29.81,12,7,21,0.01
2013-2-26,43.0,38.5,34.0,34.0,31.4,28.0,92,76,62,30.29,30.11,18,8,30,0.05
2013-2-27,45.0,39.9,36.0,37.0,35.6,34.0,95,85,72,30.11,29.63,14,10,25,0.87
2013-2-28,48.0,45.0,40.0,39.0,35.0,31.0,80,68,53,29.63,29.54,12,5,18,0.01